Flag for Germany Weather past 2 weeks in Sankt Ingbert, Saarland, Germany

Now
59 °F

Overcast.


Feels Like: 59 °F
Forecast: 43 / 55 °F
Wind: 2 mph from South

Location: Saarbruecken / Ensheim

Current Time: Sep 21, 2014 at 5:00:35 AM

Latest Report: Sep 21, 2014 at 4:00 AM


Visibility: 5 mi

Pressure: 29.98 "Hg

Humidity: 99%

Dew point: 59 °F

Location of Sankt IngbertLocation

Historic Weather in Sankt Ingbert — Graph

°F

Sankt Ingbert temperature yesterday

Maximum temperature yesterday: 72 °F (at 3:00 PM)
Minimum temperature yesterday: 57 °F (at 6:00 AM)
Average temperature yesterday: 63 °F

Past Weeks' High & Low Weather Summary

 TemperatureHumidityPressure
High77 °F (Sep 17, 4:00 PM)100% (Sep 6, 7:00 AM)30.19 "Hg (Sep 6, 7:00 AM)
Low46 °F (Sep 12, 6:00 AM)49% (Sep 8, 5:00 PM)29.82 "Hg (Sep 17, 6:00 PM)
Average62 °F83%30.00 "Hg
* Reported Sep 6 4:00 AM — Sep 21 4:00 AM, Sankt Ingbert, Weather by CustomWeather, © 2014

Note: Actual official high and low records may vary slightly from our data, if they occured in-between our weather recording intervals... More about our weather records

Advertising

Sankt Ingbert weather history for previous 24 hours

 ConditionsComfort  
Time TempWeatherWind HumidityBarometerVisibility
4:00 AM
Sep 21
59 °FOvercast.2 mph99%29.98 "Hg5 mi
3:00 AM59 °FOvercast.No wind99%29.99 "Hg5 mi
2:00 AM59 °FThunderstorms. Overcast.1 mph98%29.99 "Hg12 mi
1:00 AM60 °FThundershowers. Overcast.6 mph96%30.02 "Hg3 mi
12:00 AM62 °FOvercast.1 mph94%29.99 "Hg19 mi
11:00 PM
Sep 20
63 °FPassing clouds.2 mph92%29.98 "Hg19 mi
10:00 PM67 °FPassing clouds.2 mph82%29.98 "Hg19 mi
9:00 PM65 °FPassing clouds.1 mph84%29.98 "Hg19 mi
8:00 PM68 °FPassing clouds.3 mph80%29.95 "Hg19 mi
3:00 PM72 °FPartly sunny.5 mph69%29.97 "Hg16 mi
2:00 PM71 °FPartly sunny.5 mph70%29.98 "Hg16 mi
1:00 PM69 °FPartly sunny.3 mph80%29.99 "Hg16 mi
12:00 PM68 °FScattered clouds.5 mph81%29.99 "Hg9 mi
11:00 AM64 °FPartly sunny.3 mph87%30.00 "Hg6 mi
10:00 AM63 °FFog.1 mph94%29.98 "Hg4 mi
9:00 AM59 °FFog.1 mph100%29.98 "Hg2 mi
8:00 AM58 °FFog.1 mph100%29.98 "Hg2 mi
7:00 AM57 °FFog.1 mph100%29.98 "Hg1 mi
6:00 AM57 °FFog.1 mph99%29.97 "Hg1 mi
5:00 AM60 °FPassing clouds.2 mph100%29.98 "Hg2 mi
Weather by CustomWeather, © 2014

See weather overviewHow to use our weather pages